Time,TemperatureF,DewpointF,PressureIn,WindDirection,WindDirectionDegrees,WindSpeedMPH,WindSpeedGustMPH,Humidity,HourlyPrecipIn,Conditions,Clouds,dailyrainin,SoftwareType,DateUTC
2013-02-15 00:00:00,61.4,57.5,29.98,NNE,23,2.2,2.2,87,0.00,,,0.00,WUHU216HW,2013-02-15 05:00:00,
2013-02-15 00:01:00,61.4,57.5,29.98,NNE,23,2.2,2.2,87,0.00,,,0.00,WUHU216HW,2013-02-15 05:01:00,
2013-02-15 00:06:00,61.4,57.5,29.98,NNE,23,2.2,2.2,87,0.00,,,0.00,WUHU216HW,2013-02-15 05:06:00,
2013-02-15 00:31:00,62.3,58.1,29.98,NE,45,2.5,2.5,86,0.00,,,0.00,WUHU216HW,2013-02-15 05:31:00,
2013-02-15 00:36:00,62.3,58.1,29.98,NE,45,2.5,2.5,86,0.00,,,0.00,WUHU216HW,2013-02-15 05:36:00,
2013-02-15 01:30:00,62.8,58.2,29.97,NE,45,2.0,2.0,85,0.00,,,0.00,WUHU216HW,2013-02-15 06:30:00,
2013-02-15 01:35:00,62.8,58.2,29.97,NE,45,2.0,2.0,85,0.00,,,0.00,WUHU216HW,2013-02-15 06:35:00,
2013-02-15 02:30:00,63.4,58.4,29.97,NE,45,1.1,1.1,84,0.00,,,0.00,WUHU216HW,2013-02-15 07:30:00,
2013-02-15 02:36:00,63.4,58.4,29.97,NE,45,1.1,1.1,84,0.00,,,0.00,WUHU216HW,2013-02-15 07:36:00,
2013-02-15 03:30:00,63.2,58.6,29.95,ESE,113,2.2,2.2,85,0.00,,,0.00,WUHU216HW,2013-02-15 08:30:00,
2013-02-15 03:35:00,63.2,58.6,29.95,ESE,113,2.2,2.2,85,0.00,,,0.00,WUHU216HW,2013-02-15 08:35:00,
2013-02-15 04:30:00,63.9,58.6,29.94,NE,45,0.7,0.7,83,0.00,,,0.00,WUHU216HW,2013-02-15 09:30:00,
2013-02-15 04:35:00,63.9,58.6,29.94,NE,45,0.7,0.7,83,0.00,,,0.00,WUHU216HW,2013-02-15 09:35:00,
2013-02-15 05:30:00,64.4,59.5,29.94,NNW,338,0.2,0.2,84,0.00,,,0.00,WUHU216HW,2013-02-15 10:30:00,
2013-02-15 05:35:00,64.4,59.5,29.94,NNW,338,0.2,0.2,84,0.00,,,0.00,WUHU216HW,2013-02-15 10:35:00,
2013-02-15 06:02:00,64.6,60.0,29.95,ESE,113,1.8,1.8,85,0.00,,,0.00,WUHU216HW,2013-02-15 11:02:00,
2013-02-15 06:07:00,64.6,60.0,29.95,ESE,113,1.8,1.8,85,0.00,,,0.00,WUHU216HW,2013-02-15 11:07:00,
2013-02-15 06:30:00,64.6,60.0,29.94,ESE,113,0.0,0.0,85,0.01,,,0.01,WUHU216HW,2013-02-15 11:30:00,
2013-02-15 06:35:00,64.6,60.0,29.94,ESE,113,0.0,0.0,85,0.01,,,0.01,WUHU216HW,2013-02-15 11:35:00,
2013-02-15 07:00:00,64.6,60.4,29.96,East,90,0.9,0.9,86,0.01,,,0.01,WUHU216HW,2013-02-15 12:00:00,
2013-02-15 07:05:00,64.6,60.4,29.96,East,90,0.9,0.9,86,0.01,,,0.01,WUHU216HW,2013-02-15 12:05:00,
2013-02-15 07:31:00,64.6,60.7,29.96,North,0,0.2,0.2,87,0.00,,,0.01,WUHU216HW,2013-02-15 12:31:00,
2013-02-15 07:32:00,64.6,60.7,29.96,North,0,0.2,0.2,87,0.00,,,0.01,WUHU216HW,2013-02-15 12:32:00,
2013-02-15 07:37:00,64.6,60.7,29.96,North,0,0.2,0.2,87,0.00,,,0.01,WUHU216HW,2013-02-15 12:37:00,
2013-02-15 08:00:00,65.0,61.0,29.98,North,0,0.0,0.0,87,0.00,,,0.01,WUHU216HW,2013-02-15 13:00:00,
2013-02-15 08:05:00,65.0,61.0,29.98,North,0,0.0,0.0,87,0.00,,,0.01,WUHU216HW,2013-02-15 13:05:00,
2013-02-15 08:31:00,65.0,61.0,30.00,NNW,338,2.5,2.5,87,0.01,,,0.01,WUHU216HW,2013-02-15 13:31:00,
2013-02-15 08:36:00,65.0,61.0,30.00,NNW,338,2.5,2.5,87,0.01,,,0.03,WUHU216HW,2013-02-15 13:36:00,
2013-02-15 09:00:00,65.2,61.2,30.02,NNW,338,1.1,1.1,87,0.01,,,0.03,WUHU216HW,2013-02-15 14:00:00,
2013-02-15 09:05:00,65.2,61.2,30.02,NNW,338,1.1,1.1,87,0.01,,,0.03,WUHU216HW,2013-02-15 14:05:00,
2013-02-15 09:30:00,65.2,61.2,30.02,North,0,1.3,1.3,87,0.01,,,0.03,WUHU216HW,2013-02-15 14:30:00,
2013-02-15 09:35:00,65.2,61.2,30.02,North,0,1.3,1.3,87,0.01,,,0.03,WUHU216HW,2013-02-15 14:35:00,
2013-02-15 10:00:00,65.2,61.2,30.02,NNE,23,2.0,2.0,87,0.03,,,0.05,WUHU216HW,2013-02-15 15:00:00,
2013-02-15 10:05:00,65.2,61.2,30.02,NNE,23,2.0,2.0,87,0.03,,,0.05,WUHU216HW,2013-02-15 15:05:00,
2013-02-15 10:30:00,65.2,61.6,30.02,ENE,68,0.4,0.4,88,0.02,,,0.05,WUHU216HW,2013-02-15 15:30:00,
2013-02-15 10:35:00,65.2,61.6,30.02,ENE,68,0.4,0.4,88,0.02,,,0.05,WUHU216HW,2013-02-15 15:35:00,
2013-02-15 11:00:00,65.5,61.8,30.02,NNW,338,0.7,0.7,88,0.01,,,0.07,WUHU216HW,2013-02-15 16:00:00,
2013-02-15 11:05:00,65.5,61.8,30.02,NNW,338,0.7,0.7,88,0.01,,,0.07,WUHU216HW,2013-02-15 16:05:00,
2013-02-15 11:30:00,66.1,62.4,30.03,NNW,338,1.6,1.6,88,0.02,,,0.08,WUHU216HW,2013-02-15 16:30:00,
2013-02-15 11:35:00,66.1,62.4,30.03,NNW,338,1.6,1.6,88,0.02,,,0.08,WUHU216HW,2013-02-15 16:35:00,
2013-02-15 11:59:00,65.9,62.2,30.02,NNW,338,1.3,1.3,88,0.04,,,0.08,WUHU216HW,2013-02-15 16:59:00,
2013-02-15 12:00:00,65.9,62.2,30.02,NNW,338,1.3,1.3,88,0.04,,,0.08,WUHU216HW,2013-02-15 17:00:00,
2013-02-15 12:05:00,65.9,62.2,30.02,NNW,338,1.3,1.3,88,0.04,,,0.08,WUHU216HW,2013-02-15 17:05:00,
2013-02-15 12:30:00,65.9,62.2,30.00,NE,45,1.1,1.1,88,0.04,,,0.12,WUHU216HW,2013-02-15 17:30:00,
2013-02-15 12:35:00,65.9,62.2,30.00,NE,45,1.1,1.1,88,0.04,,,0.12,WUHU216HW,2013-02-15 17:35:00,
2013-02-15 12:59:00,65.9,62.2,29.99,NNW,338,1.8,1.8,88,0.02,,,0.12,WUHU216HW,2013-02-15 17:59:00,
2013-02-15 13:00:00,65.9,62.2,29.99,NNW,338,1.8,1.8,88,0.02,,,0.12,WUHU216HW,2013-02-15 18:00:00,
2013-02-15 13:05:00,65.9,62.2,29.99,NNW,338,1.8,1.8,88,0.02,,,0.12,WUHU216HW,2013-02-15 18:05:00,
2013-02-15 13:29:00,66.2,62.6,29.98,North,0,0.4,0.4,88,0.02,,,0.12,WUHU216HW,2013-02-15 18:29:00,
2013-02-15 13:30:00,66.2,62.6,29.98,North,0,0.4,0.4,88,0.02,,,0.12,WUHU216HW,2013-02-15 18:30:00,
2013-02-15 13:35:00,66.2,62.6,29.98,North,0,0.4,0.4,88,0.02,,,0.12,WUHU216HW,2013-02-15 18:35:00,
2013-02-15 13:59:00,66.1,62.4,29.96,North,0,0.0,0.0,88,0.03,,,0.14,WUHU216HW,2013-02-15 18:59:00,
2013-02-15 14:00:00,66.1,62.4,29.96,North,0,0.0,0.0,88,0.03,,,0.14,WUHU216HW,2013-02-15 19:00:00,
2013-02-15 14:05:00,66.1,62.4,29.96,North,0,0.0,0.0,88,0.03,,,0.14,WUHU216HW,2013-02-15 19:05:00,
2013-02-15 14:29:00,66.8,63.1,29.97,ENE,68,0.2,0.2,88,0.02,,,0.16,WUHU216HW,2013-02-15 19:29:00,
2013-02-15 14:30:00,66.8,63.1,29.97,ENE,68,0.2,0.2,88,0.02,,,0.16,WUHU216HW,2013-02-15 19:30:00,
2013-02-15 14:35:00,66.8,63.1,29.97,ENE,68,0.2,0.2,88,0.02,,,0.16,WUHU216HW,2013-02-15 19:35:00,
2013-02-15 15:00:00,67.3,63.6,29.94,ESE,113,0.4,0.4,88,0.00,,,0.16,WUHU216HW,2013-02-15 20:00:00,
2013-02-15 15:05:00,67.3,63.6,29.94,ESE,113,0.4,0.4,88,0.00,,,0.16,WUHU216HW,2013-02-15 20:05:00,
2013-02-15 15:30:00,67.7,63.6,29.94,NE,45,0.0,0.0,87,0.00,,,0.16,WUHU216HW,2013-02-15 20:30:00,
2013-02-15 15:35:00,67.7,63.6,29.94,NE,45,0.0,0.0,87,0.00,,,0.16,WUHU216HW,2013-02-15 20:35:00,
2013-02-15 16:00:00,67.9,63.8,29.94,ENE,68,0.2,0.2,87,0.00,,,0.16,WUHU216HW,2013-02-15 21:00:00,
2013-02-15 16:05:00,67.9,63.8,29.94,ENE,68,0.2,0.2,87,0.00,,,0.16,WUHU216HW,2013-02-15 21:05:00,
2013-02-15 16:30:00,67.9,63.8,29.93,NE,45,0.4,0.4,87,0.00,,,0.16,WUHU216HW,2013-02-15 21:30:00,
2013-02-15 16:35:00,67.9,63.8,29.93,NE,45,0.4,0.4,87,0.00,,,0.16,WUHU216HW,2013-02-15 21:35:00,
2013-02-15 17:00:00,67.9,63.8,29.94,ESE,113,0.4,0.4,87,0.00,,,0.16,WUHU216HW,2013-02-15 22:00:00,
2013-02-15 17:05:00,67.9,63.8,29.94,ESE,113,0.4,0.4,87,0.00,,,0.16,WUHU216HW,2013-02-15 22:05:00,
2013-02-15 17:30:00,67.7,63.6,29.94,NNE,23,1.1,1.1,87,0.00,,,0.16,WUHU216HW,2013-02-15 22:30:00,
2013-02-15 17:35:00,67.7,63.6,29.94,NNE,23,1.1,1.1,87,0.00,,,0.16,WUHU216HW,2013-02-15 22:35:00,
2013-02-15 18:00:00,67.7,63.6,29.92,North,0,0.2,0.2,87,0.00,,,0.16,WUHU216HW,2013-02-15 23:00:00,
2013-02-15 18:05:00,67.7,63.6,29.92,North,0,0.2,0.2,87,0.00,,,0.16,WUHU216HW,2013-02-15 23:05:00,
2013-02-15 18:30:00,67.1,63.1,29.92,East,90,0.7,0.7,87,0.00,,,0.16,WUHU216HW,2013-02-15 23:30:00,
2013-02-15 18:35:00,67.1,63.1,29.92,East,90,0.7,0.7,87,0.00,,,0.16,WUHU216HW,2013-02-15 23:35:00,
2013-02-15 19:00:00,67.0,62.9,29.92,NE,45,0.0,0.0,87,0.00,,,0.16,WUHU216HW,2013-02-16 00:00:00,
2013-02-15 19:05:00,67.0,62.9,29.92,NE,45,0.0,0.0,87,0.00,,,0.16,WUHU216HW,2013-02-16 00:05:00,
2013-02-15 19:30:00,66.6,62.9,29.93,NE,45,0.0,0.0,88,0.00,,,0.16,WUHU216HW,2013-02-16 00:30:00,
2013-02-15 19:35:00,66.6,62.9,29.93,NE,45,0.0,0.0,88,0.00,,,0.16,WUHU216HW,2013-02-16 00:35:00,
2013-02-15 19:59:00,66.2,62.6,29.94,North,0,0.7,0.7,88,0.00,,,0.16,WUHU216HW,2013-02-16 00:59:00,
2013-02-15 20:00:00,66.2,62.6,29.94,North,0,0.7,0.7,88,0.00,,,0.16,WUHU216HW,2013-02-16 01:00:00,
2013-02-15 20:05:00,66.2,62.6,29.94,North,0,0.7,0.7,88,0.00,,,0.16,WUHU216HW,2013-02-16 01:05:00,
2013-02-15 20:30:00,65.9,62.2,29.94,North,0,0.0,0.0,88,0.00,,,0.16,WUHU216HW,2013-02-16 01:30:00,
2013-02-15 20:35:00,65.9,62.2,29.94,North,0,0.0,0.0,88,0.00,,,0.16,WUHU216HW,2013-02-16 01:35:00,
2013-02-15 20:59:00,65.9,62.2,29.94,NNE,23,0.4,0.4,88,0.00,,,0.16,WUHU216HW,2013-02-16 01:59:00,
2013-02-15 21:00:00,65.9,62.2,29.94,NNE,23,0.4,0.4,88,0.00,,,0.16,WUHU216HW,2013-02-16 02:00:00,
2013-02-15 21:05:00,65.9,62.2,29.94,NNE,23,0.4,0.4,88,0.00,,,0.16,WUHU216HW,2013-02-16 02:05:00,
2013-02-15 21:30:00,65.7,62.0,29.95,East,90,0.4,0.4,88,0.00,,,0.16,WUHU216HW,2013-02-16 02:30:00,
2013-02-15 21:35:00,65.7,62.0,29.95,East,90,0.4,0.4,88,0.00,,,0.16,WUHU216HW,2013-02-16 02:35:00,
2013-02-15 21:59:00,65.7,62.0,29.94,NNW,338,0.0,0.0,88,0.00,,,0.16,WUHU216HW,2013-02-16 02:59:00,
2013-02-15 22:00:00,65.7,62.0,29.94,NNW,338,0.0,0.0,88,0.00,,,0.16,WUHU216HW,2013-02-16 03:00:00,
2013-02-15 22:05:00,65.7,62.0,29.94,NNW,338,0.0,0.0,88,0.00,,,0.16,WUHU216HW,2013-02-16 03:05:00,
2013-02-15 22:30:00,65.9,62.2,29.96,NNE,23,0.2,0.2,88,0.00,,,0.16,WUHU216HW,2013-02-16 03:30:00,
2013-02-15 22:35:00,65.9,62.2,29.96,NNE,23,0.2,0.2,88,0.00,,,0.16,WUHU216HW,2013-02-16 03:35:00,
2013-02-15 23:00:00,65.9,62.2,29.95,East,90,0.0,0.0,88,0.00,,,0.16,WUHU216HW,2013-02-16 04:00:00,
2013-02-15 23:05:00,65.9,62.2,29.95,East,90,0.0,0.0,88,0.00,,,0.16,WUHU216HW,2013-02-16 04:05:00,
2013-02-15 23:30:00,65.9,62.2,29.95,East,90,0.0,0.0,88,0.00,,,0.16,WUHU216HW,2013-02-16 04:30:00,
2013-02-15 23:35:00,65.9,62.2,29.95,East,90,0.0,0.0,88,0.00,,,0.16,WUHU216HW,2013-02-16 04:35:00,
2013-02-15 23:59:00,65.7,62.0,29.95,ESE,113,0.0,0.0,88,0.00,,,0.16,WUHU216HW,2013-02-16 04:59:00,